Jacksonville, IL

5:59 PM CDT on October 19, 2019 (GMT -0500)
Jacksonville Municipal

Weather History for KIJX - August, 2019

Change the Weather History Date:

Wednesday, August 21, 2019

  Actual Average (WUND) Record (WUND)
Temperature  
Mean Temperature 74 °F -  
Max Temperature 82 °F - - (-1)
Min Temperature 65 °F - - (-1)
Cooling Degree Days 8    
Growing Degree Days 24 (Base 50)    
Moisture  
Dew Point 70 °F    
Average Humidity 90    
Maximum Humidity 99    
Minimum Humidity 67    
Precipitation  
Precipitation 0.02 in - - ()
Sea Level Pressure  
Sea Level Pressure 29.99 in    
Wind  
Wind Speed 3 mph (WSW)    
Max Wind Speed 22 mph    
Max Gust Speed 29 mph    
Visibility 8 miles    
Events Fog , Rain    
Averages and records for this station are not official NWS values.
T = Trace of Precipitation, MM = Missing Value Source: NWS Daily Summary

Daily Weather History Graph

Daily Weather History Graph

Search for Another Location

Airport or City:

Astronomy

Aug. 21, 2019 Rise Set
Actual Time 6:18 AM CDT 7:49 PM CDT
Civil Twilight 5:50 AM CDT 8:17 PM CDT
Nautical Twilight 5:15 AM CDT 8:51 PM CDT
Astronomical Twilight 4:39 AM CDT 9:27 PM CDT
Moon 11:07 PM CDT (8/21) 11:53 AM CDT (8/21)
Length of Visible Light 14h 27m
Length of Day
13h 30m
Waning Gibbous, 69% of the Moon is Illuminated
Aug 21
Waning Gibbous
Aug 23
Last Quarter
Aug 30
New
Sep 5
First Quarter
Sep 13
Full

Hourly Weather History & Observations

Time (CDT) Temp. Heat Index Dew Point Humidity Pressure Visibility Wind Dir Wind Speed Gust Speed Precip Events Conditions
12:15 AM 67.5 °F - 66.6 °F 97% 30.01 in 10.0 mi Calm Calm - N/A   Clear
12:35 AM 66.9 °F - 66.2 °F 98% 30.01 in 10.0 mi Calm Calm - N/A   Clear
12:55 AM 66.6 °F - 65.8 °F 98% 30.01 in 10.0 mi Calm Calm - N/A   Clear
1:15 AM 66.2 °F - 65.5 °F 98% 30.00 in 7.0 mi Calm Calm - N/A   Clear
1:35 AM 66.4 °F - 65.8 °F 98% 29.99 in 7.0 mi Calm Calm - N/A   Clear
1:55 AM 66.2 °F - 65.5 °F 98% 29.99 in 1.8 mi Calm Calm - N/A   Mist
2:15 AM 65.7 °F - 65.3 °F 99% 29.98 in 0.5 mi Calm Calm - N/A Fog Fog
2:35 AM 66.4 °F - 66.0 °F 99% 29.98 in 4.0 mi South 3.5 mph - N/A   Clear
2:55 AM 66.6 °F - 66.2 °F 99% 29.98 in 7.0 mi South 4.6 mph - N/A   Clear
3:15 AM 67.5 °F - 67.1 °F 99% 29.97 in 7.0 mi South 3.5 mph - N/A   Clear
3:35 AM 67.1 °F - 66.7 °F 99% 29.97 in 7.0 mi Calm Calm - N/A   Clear
3:55 AM 67.1 °F - 66.7 °F 99% 29.96 in 7.0 mi SE 3.5 mph - N/A   Clear
4:15 AM 66.7 °F - 66.4 °F 99% 29.95 in 7.0 mi SE 3.5 mph - N/A   Clear
4:35 AM 67.1 °F - 66.6 °F 98% 29.95 in 5.0 mi SSE 3.5 mph - N/A   Clear
4:55 AM 67.1 °F - 66.7 °F 99% 29.95 in 5.0 mi South 3.5 mph - N/A   Clear
5:15 AM 67.3 °F - 67.1 °F 99% 29.96 in 5.0 mi Calm Calm - N/A   Clear
5:35 AM 66.4 °F - 66.2 °F 99% 29.97 in 5.0 mi Calm Calm - N/A   Clear
5:55 AM 66.7 °F - 66.2 °F 98% 29.97 in 3.0 mi Calm Calm - N/A   Clear
6:15 AM 66.4 °F - 66.2 °F 99% 29.97 in 1.8 mi Calm Calm - N/A   Mist
6:35 AM 66.0 °F - 65.7 °F 99% 29.99 in 2.0 mi SSW 3.5 mph - N/A   Mostly Cloudy
6:55 AM 67.1 °F - 66.6 °F 98% 30.00 in 5.0 mi South 3.5 mph - N/A   Scattered Clouds
7:15 AM 68.2 °F - 68.0 °F 99% 30.00 in 7.0 mi Calm Calm - N/A   Clear
7:35 AM 69.1 °F - 68.5 °F 98% 30.01 in 10.0 mi Calm Calm - N/A   Clear
7:55 AM 70.5 °F - 69.4 °F 96% 30.00 in 10.0 mi Calm Calm - N/A   Mostly Cloudy
8:15 AM 71.6 °F - 70.0 °F 95% 29.99 in 7.0 mi Calm Calm - N/A   Mostly Cloudy
8:35 AM 72.5 °F - 70.3 °F 93% 29.99 in 7.0 mi SSW 3.5 mph - 0.01 in   Mostly Cloudy
8:55 AM 73.9 °F - 70.9 °F 90% 29.99 in 10.0 mi SSW 3.5 mph - 0.01 in   Scattered Clouds
9:15 AM 74.7 °F - 71.2 °F 89% 29.99 in 10.0 mi Calm Calm - N/A   Clear
9:35 AM 75.6 °F - 71.8 °F 88% 29.99 in 10.0 mi Calm Calm - N/A   Clear
9:55 AM 76.5 °F - 72.7 °F 88% 30.00 in 10.0 mi Calm Calm - N/A   Scattered Clouds
10:15 AM 78.1 °F - 73.2 °F 85% 30.01 in 10.0 mi Calm Calm - N/A   Mostly Cloudy
10:35 AM 77.4 °F - 73.6 °F 88% 30.03 in 10.0 mi West 9.2 mph - N/A   Overcast
10:55 AM 77.4 °F - 73.9 °F 89% 30.03 in 10.0 mi West 4.6 mph - N/A   Mostly Cloudy
11:15 AM 77.7 °F - 73.9 °F 88% 30.06 in 10.0 mi West 8.1 mph - N/A   Mostly Cloudy
11:35 AM 76.5 °F - 72.9 °F 89% 30.08 in 10.0 mi West 13.8 mph 20.7 mph N/A   Mostly Cloudy
11:55 AM 75.4 °F - 73.0 °F 92% 30.09 in 10.0 mi West 12.7 mph 18.4 mph N/A   Overcast
12:15 PM 75.4 °F - 72.1 °F 90% 30.08 in 10.0 mi WNW 16.1 mph 23.0 mph N/A Rain Light Rain
12:35 PM 74.5 °F - 70.7 °F 88% 30.04 in 10.0 mi NW 21.9 mph 28.8 mph N/A   Overcast
12:55 PM 73.8 °F - 70.2 °F 88% 30.01 in 7.0 mi NNW 21.9 mph 26.5 mph 0.01 in Rain Rain
1:15 PM 74.3 °F - 70.7 °F 88% 29.98 in 10.0 mi North 21.9 mph - N/A   Scattered Clouds
1:35 PM 76.1 °F - 71.2 °F 85% 29.95 in 10.0 mi North 15.0 mph 20.7 mph N/A   Clear
1:55 PM 75.6 °F - 69.8 °F 82% 29.96 in 10.0 mi North 6.9 mph - N/A   Scattered Clouds
2:15 PM 76.3 °F - 70.2 °F 81% 29.97 in 10.0 mi North 3.5 mph - N/A   Scattered Clouds
2:35 PM 77.9 °F - 71.2 °F 80% 29.97 in 10.0 mi East 8.1 mph - N/A   Clear
2:55 PM 79.0 °F - 70.5 °F 75% 29.97 in 10.0 mi East 5.8 mph - N/A   Clear
3:15 PM 81.1 °F 85.2 °F 71.2 °F 72% 29.97 in 10.0 mi East 4.6 mph - N/A   Scattered Clouds
3:35 PM 80.2 °F 83.3 °F 69.6 °F 70% 29.97 in 10.0 mi Calm Calm - N/A   Scattered Clouds
3:55 PM 81.1 °F 84.9 °F 70.3 °F 70% 29.96 in 10.0 mi Calm Calm - N/A   Scattered Clouds
4:15 PM 81.5 °F 84.9 °F 69.6 °F 67% 29.95 in 10.0 mi SE 3.5 mph - N/A   Scattered Clouds
4:35 PM 82.0 °F 86.3 °F 71.1 °F 69% 29.95 in 10.0 mi SW 3.5 mph - N/A   Scattered Clouds
4:55 PM 81.5 °F 85.9 °F 71.6 °F 72% 29.97 in 10.0 mi SSW 4.6 mph - N/A   Mostly Cloudy
5:15 PM 81.7 °F 86.0 °F 71.4 °F 71% 29.98 in 10.0 mi West 8.1 mph - N/A   Mostly Cloudy
5:35 PM 81.0 °F 84.6 °F 70.3 °F 70% 29.98 in 10.0 mi West 4.6 mph - N/A   Scattered Clouds
5:55 PM 80.6 °F 84.2 °F 70.9 °F 72% 29.99 in 10.0 mi West 6.9 mph - N/A   Scattered Clouds
6:15 PM 80.4 °F 84.4 °F 71.8 °F 75% 29.99 in 10.0 mi WNW 4.6 mph - N/A   Mostly Cloudy
6:35 PM 78.3 °F - 72.0 °F 81% 29.98 in 10.0 mi NW 3.5 mph - N/A   Mostly Cloudy
6:55 PM 77.7 °F - 72.0 °F 82% 29.98 in 10.0 mi Calm Calm - N/A   Scattered Clouds
7:15 PM 76.3 °F - 72.7 °F 89% 29.98 in 10.0 mi Calm Calm - N/A   Scattered Clouds
7:35 PM 75.4 °F - 72.5 °F 91% 29.99 in 10.0 mi Calm Calm - N/A   Mostly Cloudy
7:55 PM 74.8 °F - 72.0 °F 91% 29.98 in 10.0 mi NNE 4.6 mph - N/A   Scattered Clouds
8:15 PM 74.7 °F - 71.6 °F 90% 29.99 in 10.0 mi North 3.5 mph - N/A   Scattered Clouds
8:35 PM 74.1 °F - 72.1 °F 94% 30.00 in 10.0 mi Calm Calm - N/A   Mostly Cloudy
8:55 PM 73.9 °F - 71.8 °F 93% 30.00 in 10.0 mi Calm Calm - N/A   Mostly Cloudy
9:15 PM 73.8 °F - 71.6 °F 93% 29.99 in 10.0 mi East 3.5 mph - N/A   Light Drizzle
9:35 PM 73.4 °F - 71.8 °F 95% 29.99 in 10.0 mi Calm Calm - N/A   Mostly Cloudy
9:55 PM 72.7 °F - 71.6 °F 96% 29.99 in 10.0 mi NNW 3.5 mph - N/A   Light Drizzle
10:15 PM 72.5 °F - 71.6 °F 97% 29.99 in 10.0 mi Calm Calm - N/A   Scattered Clouds
10:35 PM 72.5 °F - 71.1 °F 95% 29.99 in 10.0 mi Calm Calm - N/A   Scattered Clouds
10:55 PM 72.0 °F - 70.9 °F 96% 29.98 in 10.0 mi Calm Calm - N/A   Scattered Clouds
11:15 PM 71.6 °F - 70.7 °F 97% 29.99 in 10.0 mi NW 3.5 mph - N/A   Clear
11:35 PM 71.6 °F - 70.7 °F 97% 29.99 in 10.0 mi Calm Calm - N/A   Scattered Clouds
11:55 PM 71.8 °F - 70.9 °F 97% 30.00 in 10.0 mi SSW 4.6 mph - N/A   Overcast